Overview Statistics Trail Chart Weather Telemetry Raw packets
 

This is the latest recevied weather packets stored in our database for station/object GBTWP-2. If no packets are shown the sender has not sent any weather packets the latest 10 day(s).

<< 6 7 8 9 10 11 12 >>
Time Temp. Humidity Pressure Rain* Wind** Luminosity Snow
1788634019 26.11° C 60% 1019 hPa 0 mm - 645 W/m² -
1788633720 25.56° C 61% 1019 hPa 0 mm - 618 W/m² -
1788633420 25.56° C 62% 1019.1 hPa 0 mm - 182 W/m² -
1788633120 25.56° C 61% 1019 hPa 0 mm - 644 W/m² -
1788632819 25° C 62% 1019.1 hPa 0 mm - 624 W/m² -
1788632520 25° C 63% 1018.9 hPa 0 mm - 627 W/m² -
1788632219 25.56° C 60% 1019 hPa 0 mm - 623 W/m² -
1788631919 25° C 64% 1018.9 hPa 0 mm - 653 W/m² -
1788631620 25.56° C 62% 1019 hPa 0 mm - 528 W/m² -
1788631319 25° C 63% 1018.9 hPa 0 mm - 657 W/m² -
1788631019 25° C 63% 1018.9 hPa 0 mm - 620 W/m² -
1788630719 25.56° C 63% 1018.7 hPa 0 mm - 432 W/m² -
1788630420 25° C 63% 1018.8 hPa 0 mm - 481 W/m² -
1788630119 25° C 63% 1018.7 hPa 0 mm - 49 W/m² -
1788629819 25° C 62% 1018.9 hPa 0 mm - 79 W/m² -
1788629520 25° C 63% 1018.8 hPa 0 mm - 70 W/m² -
1788629220 25° C 64% 1019 hPa 0 mm - 102 W/m² -
1788628920 24.44° C 63% 1018.8 hPa 0 mm - 230 W/m² -
1788628619 25° C 63% 1019.1 hPa 0 mm - 610 W/m² -
1788628320 24.44° C 62% 1019 hPa 0 mm - 610 W/m² -
1788628020 25° C 61% 1018.9 hPa 0 mm - 609 W/m² -
1788627720 24.44° C 64% 1019.1 hPa 0 mm - 606 W/m² -
1788627419 24.44° C 64% 1019.1 hPa 0 mm - 604 W/m² -
1788627120 24.44° C 64% 1019.1 hPa 0 mm - 602 W/m² -
1788626820 24.44° C 65% 1019.2 hPa 0 mm - 599 W/m² -

* Rain latest hour (hover to see other rain measurements)
** Current wind speed in m/s (hover to see current wind gust speed)